Location: Mound City (historical)
(34.0564°N, 117.2656°W)
Time: 02:20:18
(UTC+00:00)

Cosmos 1825 Rocket - Pass Details

Date: 08 September 2024
Orbit: 600 x 626 km, 82.5° (Epoch: 03 October)

Event Time Altitude Azimuth Distance (km) Brightness Sun altitude
Rises 12:28:47 0° 355° (N) 2,911 7.2 -12.8°
Reaches altitude 10° 12:31:02 10° 358° (N) 1,998 6.3 -12.4°
Maximum altitude 12:35:28 74° 83° (E) 649 3.8 -11.5°
Drops below altitude 10° 12:39:49 10° 168° (SSE) 1,970 6.1 -10.6°
Sets 12:42:02 0° 171° (S) 2,866 6.9 -10.2°
